QPF
0.11 0.11 0.12 0.13 0.13 0.12 0.11 0.10 0.10 0.10 0.10 0.10 0.09 0.08 0.07 0.06 0.05 0.04 0.03 0.03 0.02 0.01 0.00 0.00 0.00 0.00 0.00 0.00 0.01 0.02 0.02 0.03 0.03 0.03 0.04 0.06 0.07 0.13 0.19 0.20 0.13 0.10 0.10 0.13 0.15 0.17 0.17 0.16 0.14 0.14 0.16 0.16 0.22 0.24 0.25 0.25 0.22 0.20 0.20 0.22 0.25 0.25 0.23 0.22 0.21 0.20 0.19 0.20 0.19
0.09 0.12 0.13 0.13 0.13 0.13 0.12 0.11 0.09 0.10 0.11 0.11 0.10 0.09 0.09 0.09 0.07 0.05 0.05 0.04 0.03 0.02 0.01 0.00 0.00 0.00 0.00 0.01 0.01 0.02 0.03 0.03 0.02 0.02 0.02 0.03 0.04 0.08 0.13 0.16 0.12 0.10 0.10 0.15 0.17 0.19 0.20 0.21 0.19 0.20 0.22 0.24 0.29 0.32 0.31 0.24 0.23 0.25 0.28 0.29 0.33 0.32 0.29 0.29 0.25 0.22 0.19 0.18 0.20
0.06 0.08 0.10 0.12 0.14 0.15 0.16 0.15 0.13 0.11 0.10 0.11 0.10 0.09 0.09 0.10 0.09 0.08 0.06 0.06 0.04 0.03 0.02 0.00 0.00 0.01 0.01 0.01 0.01 0.02 0.03 0.03 0.02 0.01 0.01 0.01 0.02 0.04 0.06 0.07 0.07 0.09 0.12 0.16 0.17 0.18 0.20 0.22 0.23 0.24 0.25 0.29 0.33 0.36 0.34 0.26 0.25 0.27 0.30 0.31 0.37 0.39 0.39 0.36 0.32 0.27 0.22 0.20 0.20
0.04 0.05 0.08 0.13 0.15 0.19 0.22 0.23 0.21 0.16 0.12 0.13 0.10 0.09 0.09 0.09 0.10 0.09 0.08 0.07 0.05 0.04 0.03 0.01 0.01 0.01 0.01 0.01 0.01 0.03 0.04 0.03 0.02 0.02 0.01 0.01 0.01 0.01 0.02 0.03 0.05 0.08 0.11 0.14 0.15 0.17 0.20 0.23 0.23 0.25 0.27 0.29 0.33 0.35 0.36 0.37 0.32 0.31 0.32 0.34 0.41 0.48 0.50 0.43 0.39 0.34 0.28 0.22 0.23
0.04 0.04 0.07 0.13 0.15 0.16 0.17 0.19 0.19 0.18 0.16 0.14 0.12 0.10 0.09 0.09 0.09 0.08 0.06 0.05 0.05 0.05 0.04 0.02 0.02 0.01 0.01 0.01 0.01 0.02 0.02 0.02 0.02 0.02 0.02 0.02 0.01 0.01 0.01 0.01 0.02 0.05 0.09 0.11 0.14 0.17 0.20 0.21 0.23 0.27 0.29 0.31 0.34 0.37 0.40 0.41 0.40 0.37 0.37 0.46 0.52 0.58 0.62 0.65 0.50 0.41 0.35 0.28 0.31
0.06 0.05 0.06 0.11 0.12 0.15 0.17 0.18 0.17 0.16 0.14 0.12 0.11 0.10 0.10 0.10 0.10 0.10 0.09 0.07 0.08 0.08 0.07 0.04 0.03 0.03 0.03 0.02 0.02 0.02 0.02 0.02 0.01 0.01 0.01 0.02 0.02 0.01 0.01 0.01 0.01 0.03 0.05 0.07 0.13 0.16 0.18 0.21 0.23 0.25 0.27 0.31 0.31 0.34 0.39 0.45 0.48 0.46 0.47 0.58 0.62 0.68 0.72 0.72 0.62 0.52 0.44 0.37 0.42
0.09 0.09 0.07 0.06 0.08 0.11 0.13 0.15 0.15 0.14 0.12 0.11 0.11 0.12 0.12 0.11 0.11 0.10 0.09 0.09 0.08 0.08 0.08 0.06 0.06 0.05 0.04 0.03 0.03 0.03 0.03 0.02 0.02 0.01 0.01 0.01 0.01 0.01 0.01 0.01 0.01 0.02 0.04 0.06 0.11 0.15 0.18 0.20 0.23 0.25 0.26 0.28 0.28 0.31 0.37 0.44 0.47 0.47 0.50 0.62 0.66 0.75 0.83 0.87 0.78 0.69 0.59 0.49 0.57
0.06 0.09 0.10 0.06 0.06 0.08 0.10 0.11 0.11 0.10 0.09 0.10 0.11 0.12 0.12 0.12 0.10 0.08 0.06 0.05 0.06 0.06 0.07 0.07 0.07 0.06 0.05 0.04 0.04 0.04 0.04 0.03 0.02 0.02 0.02 0.01 0.01 0.01 0.02 0.02 0.02 0.02 0.03 0.03 0.10 0.13 0.17 0.24 0.29 0.30 0.30 0.30 0.28 0.30 0.35 0.39 0.41 0.41 0.46 0.60 0.70 0.80 0.89 0.96 0.93 0.91 0.85 0.73 0.80
0.01 0.03 0.05 0.09 0.08 0.08 0.08 0.09 0.09 0.08 0.07 0.08 0.10 0.11 0.11 0.11 0.09 0.08 0.08 0.07 0.09 0.10 0.09 0.09 0.08 0.07 0.07 0.08 0.06 0.05 0.04 0.04 0.03 0.03 0.02 0.02 0.02 0.02 0.02 0.02 0.03 0.02 0.03 0.03 0.05 0.11 0.20 0.28 0.35 0.37 0.35 0.33 0.31 0.31 0.33 0.35 0.38 0.40 0.42 0.45 0.65 0.78 0.89 1.01 1.10 1.12 1.12 1.17 1.10
0.00 0.01 0.02 0.07 0.13 0.16 0.15 0.08 0.08 0.07 0.06 0.05 0.07 0.08 0.09 0.10 0.11 0.12 0.13 0.13 0.12 0.12 0.12 0.13 0.12 0.12 0.12 0.10 0.10 0.09 0.07 0.05 0.04 0.03 0.03 0.02 0.02 0.02 0.02 0.03 0.04 0.04 0.04 0.04 0.07 0.15 0.24 0.33 0.45 0.50 0.48 0.42 0.35 0.32 0.32 0.35 0.40 0.42 0.42 0.42 0.48 0.67 0.89 1.06 1.19 1.24 1.22 1.17 1.14
0.01 0.01 0.01 0.03 0.06 0.10 0.15 0.18 0.14 0.08 0.03 0.04 0.04 0.04 0.04 0.05 0.09 0.12 0.15 0.16 0.17 0.17 0.17 0.17 0.14 0.14 0.14 0.15 0.15 0.15 0.13 0.11 0.07 0.05 0.04 0.04 0.03 0.03 0.03 0.03 0.04 0.05 0.06 0.07 0.07 0.11 0.19 0.33 0.48 0.54 0.54 0.47 0.40 0.34 0.33 0.35 0.41 0.44 0.45 0.43 0.46 0.60 0.80 1.00 1.16 1.23 1.19 1.04 1.06
0.01 0.00 0.00 0.00 0.01 0.04 0.08 0.14 0.18 0.12 0.06 0.04 0.04 0.05 0.05 0.06 0.07 0.13 0.19 0.23 0.24 0.22 0.20 0.18 0.19 0.19 0.19 0.18 0.18 0.18 0.18 0.17 0.13 0.10 0.08 0.07 0.06 0.05 0.04 0.04 0.04 0.05 0.06 0.06 0.07 0.09 0.14 0.25 0.40 0.50 0.52 0.44 0.41 0.40 0.38 0.38 0.41 0.44 0.45 0.44 0.45 0.50 0.62 0.83 0.96 1.00 0.96 0.81 0.88
0.00 0.00 0.00 0.00 0.00 0.01 0.02 0.05 0.11 0.17 0.18 0.10 0.09 0.09 0.10 0.11 0.10 0.11 0.14 0.18 0.21 0.20 0.18 0.16 0.19 0.21 0.23 0.24 0.23 0.22 0.21 0.20 0.17 0.15 0.13 0.10 0.08 0.07 0.06 0.06 0.06 0.07 0.08 0.08 0.07 0.08 0.09 0.11 0.25 0.39 0.46 0.39 0.40 0.42 0.43 0.43 0.41 0.42 0.45 0.45 0.45 0.47 0.53 0.62 0.70 0.67 0.60 0.58 0.60
0.00 0.00 0.00 0.00 0.00 0.00 0.01 0.01 0.03 0.16 0.27 0.24 0.23 0.25 0.28 0.30 0.33 0.30 0.25 0.19 0.18 0.15 0.12 0.10 0.11 0.15 0.20 0.25 0.26 0.25 0.23 0.23 0.19 0.16 0.14 0.14 0.12 0.10 0.10 0.09 0.09 0.11 0.12 0.12 0.11 0.10 0.09 0.09 0.11 0.24 0.38 0.40 0.44 0.47 0.50 0.52 0.43 0.40 0.40 0.42 0.41 0.42 0.46 0.54 0.60 0.62 0.59 0.54 0.49
0.00 0.00 0.00 0.00 0.00 0.00 0.00 0.01 0.01 0.05 0.12 0.22 0.28 0.34 0.39 0.41 0.48 0.51 0.49 0.39 0.30 0.22 0.15 0.07 0.08 0.10 0.14 0.20 0.24 0.25 0.25 0.26 0.20 0.16 0.15 0.15 0.14 0.13 0.13 0.13 0.13 0.14 0.14 0.14 0.14 0.13 0.13 0.12 0.12 0.17 0.26 0.37 0.52 0.58 0.60 0.62 0.51 0.41 0.34 0.33 0.33 0.33 0.36 0.41 0.50 0.54 0.55 0.56 0.49
0.00 0.00 0.00 0.00 0.00 0.00 0.00 0.01 0.01 0.02 0.04 0.07 0.15 0.21 0.25 0.28 0.27 0.32 0.40 0.48 0.45 0.38 0.28 0.16 0.10 0.07 0.08 0.12 0.18 0.22 0.24 0.25 0.22 0.18 0.17 0.18 0.17 0.16 0.16 0.16 0.16 0.16 0.16 0.15 0.16 0.15 0.15 0.15 0.15 0.15 0.18 0.31 0.50 0.56 0.57 0.59 0.55 0.46 0.37 0.29 0.25 0.24 0.24 0.27 0.32 0.36 0.41 0.51 0.48
0.00 0.00 0.00 0.00 0.00 0.00 0.00 0.00 0.01 0.01 0.02 0.02 0.04 0.08 0.14 0.20 0.20 0.20 0.21 0.26 0.36 0.42 0.44 0.43 0.34 0.23 0.13 0.08 0.10 0.14 0.18 0.20 0.19 0.18 0.17 0.19 0.18 0.17 0.16 0.16 0.15 0.16 0.16 0.16 0.16 0.16 0.16 0.16 0.17 0.17 0.18 0.23 0.38 0.43 0.43 0.44 0.46 0.45 0.41 0.34 0.27 0.22 0.18 0.18 0.19 0.22 0.28 0.36 0.40
0.00 0.00 0.00 0.00 0.00 0.00 0.00 0.00 0.00 0.01 0.02 0.02 0.02 0.03 0.05 0.08 0.13 0.14 0.12 0.11 0.16 0.24 0.34 0.44 0.58 0.57 0.44 0.22 0.14 0.11 0.13 0.17 0.14 0.13 0.14 0.17 0.17 0.15 0.14 0.13 0.13 0.13 0.13 0.14 0.14 0.15 0.15 0.15 0.17 0.18 0.19 0.20 0.26 0.29 0.31 0.32 0.35 0.37 0.37 0.36 0.32 0.26 0.21 0.18 0.20 0.21 0.22 0.25 0.28
0.00 0.00 0.00 0.00 0.00 0.00 0.00 0.00 0.00 0.00 0.01 0.02 0.02 0.02 0.02 0.02 0.05 0.09 0.11 0.10 0.09 0.10 0.13 0.17 0.34 0.48 0.58 0.58 0.49 0.37 0.28 0.32 0.24 0.16 0.11 0.12 0.13 0.12 0.11 0.10 0.10 0.10 0.10 0.10 0.11 0.12 0.13 0.14 0.17 0.18 0.20 0.21 0.21 0.22 0.24 0.27 0.28 0.29 0.29 0.30 0.28 0.26 0.23 0.20 0.21 0.21 0.20 0.20 0.21
0.00 0.00 0.00 0.00 0.00 0.00 0.00 0.00 0.00 0.00 0.00 0.01 0.01 0.01 0.01 0.01 0.01 0.04 0.07 0.07 0.09 0.11 0.13 0.13 0.12 0.18 0.33 0.60 0.69 0.65 0.57 0.55 0.54 0.37 0.24 0.32 0.18 0.12 0.10 0.09 0.09 0.09 0.09 0.08 0.08 0.10 0.12 0.14 0.16 0.18 0.19 0.20 0.19 0.20 0.22 0.23 0.24 0.24 0.24 0.24 0.24 0.22 0.20 0.19 0.20 0.20 0.20 0.19 0.19
0.00 0.00 0.00 0.00 0.00 0.00 0.00 0.00 0.00 0.00 0.00 0.00 0.00 0.01 0.01 0.01 0.01 0.02 0.02 0.02 0.04 0.07 0.11 0.15 0.17 0.16 0.18 0.28 0.44 0.54 0.56 0.52 0.54 0.47 0.42 0.51 0.42 0.29 0.18 0.13 0.12 0.11 0.11 0.10 0.08 0.08 0.10 0.13 0.15 0.16 0.16 0.15 0.15 0.16 0.18 0.19 0.20 0.21 0.22 0.21 0.21 0.20 0.19 0.19 0.20 0.20 0.20 0.20 0.19
0.00 0.00 0.00 0.00 0.00 0.00 0.00 0.00 0.00 0.00 0.00 0.00 0.00 0.00 0.00 0.01 0.01 0.01 0.02 0.01 0.01 0.01 0.03 0.08 0.13 0.17 0.19 0.17 0.25 0.32 0.37 0.37 0.36 0.33 0.32 0.35 0.35 0.33 0.28 0.23 0.20 0.16 0.14 0.14 0.13 0.12 0.10 0.10 0.11 0.12 0.12 0.11 0.11 0.12 0.13 0.15 0.16 0.18 0.19 0.19 0.19 0.19 0.19 0.20 0.20 0.20 0.21 0.21 0.20
0.00 0.00 0.00 0.00 0.00 0.00 0.00 0.00 0.00 0.00 0.00 0.00 0.00 0.00 0.00 0.00 0.01 0.01 0.01 0.02 0.02 0.01 0.01 0.02 0.05 0.09 0.14 0.17 0.17 0.19 0.22 0.26 0.21 0.20 0.21 0.22 0.22 0.22 0.21 0.20 0.19 0.20 0.19 0.17 0.17 0.16 0.16 0.15 0.12 0.12 0.12 0.11 0.11 0.12 0.12 0.13 0.14 0.15 0.16 0.17 0.18 0.19 0.20 0.21 0.21 0.21 0.22 0.22 0.22
0.00 0.00 0.00 0.00 0.00 0.00 0.00 0.00 0.00 0.00 0.00 0.00 0.00 0.00 0.00 0.00 0.00 0.00 0.01 0.02 0.02 0.02 0.02 0.02 0.02 0.03 0.05 0.09 0.10 0.11 0.11 0.09 0.09 0.10 0.13 0.14 0.16 0.16 0.15 0.14 0.15 0.16 0.16 0.16 0.18 0.19 0.19 0.18 0.17 0.17 0.17 0.16 0.15 0.14 0.14 0.14 0.15 0.15 0.16 0.17 0.18 0.20 0.21 0.21 0.22 0.22 0.23 0.23 0.22
0.00 0.00 0.00 0.00 0.00 0.00 0.00 0.00 0.00 0.00 0.00 0.00 0.00 0.00 0.00 0.00 0.00 0.00 0.00 0.01 0.01 0.02 0.02 0.02 0.02 0.02 0.02 0.02 0.04 0.04 0.04 0.03 0.04 0.05 0.07 0.09 0.10 0.11 0.11 0.12 0.12 0.12 0.12 0.14 0.15 0.15 0.15 0.15 0.17 0.15 0.14 0.16 0.18 0.19 0.18 0.16 0.15 0.15 0.15 0.16 0.18 0.18 0.18 0.18 0.18 0.19 0.19 0.20 0.20
0.00 0.00 0.00 0.00 0.00 0.00 0.00 0.00 0.00 0.00 0.00 0.00 0.00 0.00 0.00 0.00 0.00 0.00 0.00 0.01 0.01 0.01 0.02 0.02 0.03 0.02 0.02 0.02 0.02 0.02 0.02 0.02 0.03 0.03 0.04 0.05 0.07 0.08 0.09 0.09 0.10 0.10 0.11 0.11 0.11 0.12 0.13 0.13 0.13 0.13 0.12 0.11 0.12 0.14 0.16 0.16 0.15 0.14 0.13 0.13 0.13 0.13 0.13 0.14 0.14 0.14 0.14 0.15 0.15
0.00 0.00 0.00 0.00 0.00 0.00 0.00 0.00 0.00 0.00 0.00 0.00 0.00 0.00 0.00 0.00 0.00 0.00 0.00 0.00 0.01 0.01 0.01 0.02 0.02 0.02 0.02 0.03 0.03 0.02 0.02 0.03 0.03 0.03 0.03 0.04 0.04 0.06 0.07 0.08 0.09 0.09 0.08 0.09 0.10 0.10 0.10 0.12 0.12 0.12 0.11 0.11 0.10 0.10 0.11 0.11 0.12 0.12 0.12 0.12 0.14 0.14 0.12 0.12 0.12 0.12 0.12 0.12 0.12
0.00 0.00 0.00 0.00 0.00 0.00 0.00 0.00 0.00 0.00 0.00 0.00 0.00 0.00 0.00 0.00 0.00 0.00 0.00 0.00 0.00 0.01 0.01 0.01 0.01 0.01 0.01 0.01 0.02 0.02 0.02 0.03 0.03 0.03 0.03 0.04 0.04 0.04 0.05 0.06 0.08 0.08 0.08 0.06 0.07 0.08 0.08 0.07 0.09 0.10 0.10 0.10 0.09 0.09 0.09 0.09 0.09 0.10 0.11 0.12 0.12 0.13 0.14 0.14 0.12 0.12 0.11 0.11 0.11
0.00 0.00 0.00 0.00 0.00 0.00 0.00 0.00 0.00 0.00 0.00 0.00 0.00 0.00 0.00 0.00 0.00 0.00 0.00 0.00 0.00 0.01 0.01 0.01 0.01 0.01 0.01 0.01 0.01 0.01 0.02 0.03 0.03 0.03 0.04 0.03 0.03 0.04 0.04 0.04 0.05 0.07 0.07 0.07 0.06 0.06 0.06 0.06 0.06 0.07 0.08 0.09 0.09 0.08 0.08 0.09 0.09 0.09 0.10 0.11 0.10 0.09 0.10 0.11 0.11 0.12 0.12 0.12 0.12
0.00 0.00 0.00 0.00 0.00 0.00 0.00 0.00 0.00 0.00 0.00 0.00 0.00 0.00 0.00 0.00 0.00 0.00 0.00 0.00 0.00 0.01 0.01 0.01 0.01 0.01 0.01 0.01 0.01 0.01 0.01 0.01 0.02 0.03 0.04 0.04 0.04 0.04 0.04 0.04 0.05 0.05 0.05 0.06 0.07 0.08 0.09 0.08 0.07 0.06 0.05 0.05 0.06 0.07 0.07 0.06 0.06 0.07 0.06 0.04 0.04 0.05 0.06 0.07 0.08 0.09 0.11 0.11 0.11
0.00 0.00 0.00 0.00 0.00 0.00 0.00 0.00 0.00 0.00 0.00 0.00 0.00 0.00 0.00 0.00 0.00 0.00 0.00 0.00 0.00 0.00 0.01 0.01 0.01 0.01 0.01 0.01 0.01 0.01 0.01 0.01 0.01 0.01 0.02 0.03 0.05 0.05 0.05 0.05 0.06 0.05 0.05 0.05 0.06 0.08 0.09 0.09 0.08 0.07 0.06 0.05 0.05 0.05 0.05 0.05 0.05 0.04 0.04 0.02 0.02 0.01 0.02 0.03 0.04 0.06 0.07 0.08 0.09
0.00 0.00 0.00 0.00 0.00 0.00 0.00 0.00 0.00 0.00 0.00 0.00 0.00 0.00 0.00 0.00 0.00 0.00 0.00 0.00 0.00 0.01 0.01 0.01 0.01 0.01 0.01 0.01 0.01 0.01 0.01 0.01 0.01 0.01 0.01 0.01 0.02 0.04 0.05 0.07 0.07 0.08 0.07 0.06 0.07 0.07 0.07 0.09 0.09 0.09 0.08 0.07 0.06 0.05 0.05 0.04 0.04 0.04 0.03 0.02 0.01 0.01 0.01 0.01 0.01 0.01 0.02 0.04 0.02
0.00 0.00 0.00 0.00 0.00 0.00 0.00 0.00 0.00 0.00 0.00 0.00 0.00 0.00 0.00 0.00 0.00 0.00 0.00 0.00 0.00 0.01 0.01 0.01 0.01 0.01 0.01 0.01 0.01 0.01 0.01 0.01 0.01 0.01 0.01 0.01 0.01 0.01 0.02 0.04 0.06 0.08 0.09 0.08 0.09 0.09 0.09 0.09 0.10 0.10 0.10 0.09 0.08 0.07 0.07 0.06 0.04 0.04 0.04 0.02 0.02 0.02 0.01 0.01 0.01 0.01 0.00 0.00 0.00
0.00 0.00 0.00 0.00 0.00 0.00 0.00 0.00 0.00 0.00 0.00 0.00 0.00 0.00 0.00 0.00 0.00 0.00 0.00 0.00 0.00 0.01 0.01 0.01 0.01 0.01 0.01 0.01 0.01 0.01 0.01 0.01 0.01 0.01 0.01 0.01 0.01 0.01 0.01 0.01 0.02 0.04 0.05 0.04 0.07 0.09 0.10 0.10 0.10 0.11 0.12 0.12 0.11 0.10 0.09 0.08 0.07 0.06 0.05 0.04 0.03 0.02 0.02 0.02 0.01 0.01 0.01 0.00 0.00
0.00 0.00 0.00 0.00 0.00 0.00 0.00 0.00 0.00 0.00 0.00 0.00 0.00 0.00 0.00 0.01 0.00 0.00 0.00 0.00 0.00 0.01 0.01 0.01 0.01 0.01 0.01 0.01 0.01 0.01 0.01 0.01 0.01 0.01 0.01 0.01 0.01 0.01 0.01 0.01 0.00 0.01 0.01 0.01 0.02 0.05 0.07 0.10 0.11 0.11 0.12 0.13 0.13 0.13 0.12 0.10 0.10 0.09 0.08 0.06 0.05 0.04 0.03 0.03 0.03 0.02 0.02 0.01 0.01
0.00 0.00 0.00 0.00 0.00 0.00 0.00 0.00 0.00 0.00 0.00 0.00 0.00 0.00 0.01 0.01 0.00 0.00 0.00 0.00 0.00 0.00 0.01 0.01 0.01 0.01 0.01 0.01 0.01 0.01 0.01 0.01 0.01 0.00 0.00 0.01 0.01 0.01 0.01 0.01 0.00 0.00 0.00 0.00 0.01 0.01 0.03 0.06 0.09 0.10 0.11 0.13 0.13 0.14 0.14 0.14 0.15 0.14 0.12 0.10 0.08 0.07 0.06 0.05 0.05 0.04 0.04 0.04 0.02
0.00 0.00 0.00 0.00 0.00 0.00 0.00 0.00 0.00 0.00 0.00 0.00 0.00 0.00 0.01 0.01 0.01 0.00 0.00 0.00 0.00 0.00 0.01 0.01 0.01 0.01 0.01 0.01 0.01 0.01 0.01 0.01 0.01 0.00 0.00 0.01 0.01 0.01 0.01 0.01 0.00 0.00 0.00 0.00 0.00 0.00 0.01 0.02 0.04 0.06 0.09 0.11 0.12 0.14 0.15 0.16 0.16 0.16 0.15 0.14 0.13 0.12 0.11 0.10 0.08 0.07 0.06 0.07 0.05
0.00 0.00 0.00 0.00 0.00 0.00 0.00 0.00 0.00 0.00 0.00 0.00 0.00 0.01 0.01 0.01 0.01 0.00 0.00 0.00 0.00 0.00 0.01 0.01 0.01 0.01 0.01 0.01 0.01 0.01 0.01 0.01 0.00 0.00 0.00 0.01 0.00 0.00 0.00 0.00 0.00 0.00 0.00 0.00 0.00 0.00 0.00 0.01 0.01 0.02 0.04 0.06 0.09 0.11 0.13 0.14 0.15 0.16 0.16 0.16 0.16 0.16 0.15 0.15 0.15 0.13 0.11 0.10 0.07
0.00 0.00 0.00 0.00 0.00 0.00 0.00 0.00 0.00 0.00 0.00 0.00 0.00 0.00 0.01 0.01 0.01 0.00 0.00 0.00 0.01 0.01 0.01 0.01 0.01 0.01 0.01 0.01 0.01 0.01 0.01 0.01 0.00 0.00 0.00 0.00 0.00 0.00 0.00 0.00 0.00 0.00 0.00 0.00 0.00 0.00 0.00 0.00 0.01 0.01 0.02 0.03 0.04 0.07 0.09 0.08 0.11 0.12 0.14 0.16 0.18 0.18 0.18 0.19 0.19 0.18 0.16 0.14 0.10
0.00 0.00 0.00 0.00 0.00 0.00 0.00 0.00 0.00 0.00 0.00 0.00 0.00 0.00 0.00 0.01 0.01 0.00 0.00 0.00 0.00 0.01 0.01 0.01 0.01 0.01 0.01 0.00 0.01 0.01 0.01 0.00 0.00 0.00 0.00 0.00 0.00 0.00 0.00 0.00 0.00 0.00 0.00 0.00 0.00 0.00 0.00 0.00 0.01 0.01 0.01 0.02 0.03 0.04 0.05 0.07 0.09 0.10 0.12 0.13 0.16 0.18 0.19 0.19 0.20 0.19 0.17 0.15 0.12
0.00 0.00 0.00 0.00 0.00 0.00 0.00 0.00 0.00 0.00 0.00 0.00 0.00 0.00 0.00 0.00 0.00 0.00 0.00 0.00 0.01 0.00 0.01 0.01 0.01 0.01 0.01 0.01 0.01 0.01 0.01 0.01 0.00 0.00 0.00 0.00 0.00 0.00 0.00 0.00 0.00 0.00 0.00 0.00 0.00 0.00 0.00 0.00 0.00 0.01 0.01 0.01 0.02 0.03 0.04 0.06 0.08 0.10 0.11 0.12 0.14 0.16 0.17 0.17 0.17 0.16 0.15 0.14 0.12
MSLP
1005.49 1005.13 1004.81 1004.41 1004.05 1003.69 1003.29 1002.97 1002.61 1002.29 1001.97 1001.57 1001.17 1000.81 1000.49 1000.25 1000.01 999.85 999.65 999.53 999.33 999.17 999.05 998.89 998.81 998.73 998.65 998.57 998.49 998.45 998.41 998.41 998.41 998.41 998.37 998.33 998.29 998.25 998.21 998.25 998.21 998.13 997.97 997.93 997.85 997.85 997.85 997.97 998.01 998.13 998.29 998.53 998.73 998.97 999.13 999.25 999.41 999.53 999.57 999.65 999.73 999.85 999.97 1000.17 1000.37 1000.57 1000.69 1000.89 1001.13
1005.69 1005.33 1004.97 1004.61 1004.25 1003.85 1003.49 1003.13 1002.77 1002.45 1002.13 1001.81 1001.45 1001.09 1000.69 1000.33 1000.01 999.77 999.53 999.41 999.21 999.05 998.93 998.77 998.65 998.61 998.57 998.49 998.41 998.33 998.29 998.25 998.29 998.33 998.33 998.25 998.17 998.09 998.05 998.01 998.01 997.97 997.93 997.93 997.93 997.97 998.05 998.13 998.21 998.33 998.49 998.69 998.93 999.13 999.33 999.45 999.53 999.69 999.73 999.77 999.85 999.89 1000.01 1000.21 1000.37 1000.53 1000.69 1000.85 1001.09
1005.85 1005.45 1005.09 1004.73 1004.41 1004.05 1003.69 1003.37 1003.01 1002.69 1002.33 1002.01 1001.69 1001.37 1000.97 1000.61 1000.21 999.85 999.57 999.37 999.13 998.97 998.85 998.73 998.61 998.53 998.49 998.45 998.41 998.33 998.25 998.21 998.25 998.29 998.33 998.25 998.09 998.01 998.01 997.97 997.97 997.93 997.93 997.97 998.05 998.13 998.17 998.25 998.37 998.49 998.65 998.81 999.05 999.25 999.41 999.57 999.69 999.81 999.89 999.97 999.97 1000.05 1000.13 1000.25 1000.41 1000.57 1000.69 1000.85 1001.09
1006.01 1005.69 1005.33 1004.97 1004.69 1004.37 1004.01 1003.65 1003.29 1002.97 1002.57 1002.25 1001.93 1001.57 1001.25 1000.89 1000.57 1000.17 999.81 999.45 999.25 999.09 998.93 998.81 998.61 998.49 998.41 998.41 998.41 998.41 998.37 998.25 998.33 998.41 998.41 998.33 998.17 998.13 998.13 998.09 998.05 998.01 998.05 998.05 998.13 998.25 998.33 998.41 998.53 998.65 998.81 998.93 999.13 999.29 999.45 999.65 999.77 999.93 1000.05 1000.13 1000.21 1000.25 1000.25 1000.29 1000.41 1000.53 1000.69 1000.89 1001.09
1006.25 1005.93 1005.61 1005.29 1004.97 1004.61 1004.25 1003.89 1003.53 1003.21 1002.85 1002.49 1002.13 1001.85 1001.49 1001.13 1000.85 1000.45 1000.05 999.69 999.45 999.33 999.13 998.97 998.73 998.61 998.49 998.41 998.41 998.45 998.49 998.49 998.53 998.57 998.57 998.49 998.37 998.29 998.25 998.25 998.25 998.17 998.17 998.25 998.29 998.41 998.49 998.57 998.69 998.85 998.97 999.13 999.25 999.41 999.53 999.69 999.85 1000.01 1000.13 1000.25 1000.37 1000.41 1000.41 1000.49 1000.57 1000.65 1000.77 1000.97 1001.17
1006.53 1006.17 1005.85 1005.53 1005.13 1004.77 1004.41 1004.09 1003.73 1003.41 1003.09 1002.69 1002.37 1002.05 1001.73 1001.45 1001.13 1000.77 1000.41 1000.01 999.69 999.49 999.33 999.17 999.01 998.85 998.69 998.57 998.49 998.45 998.49 998.57 998.69 998.73 998.73 998.69 998.61 998.53 998.49 998.45 998.41 998.37 998.37 998.45 998.49 998.57 998.61 998.73 998.85 999.01 999.13 999.29 999.41 999.53 999.61 999.69 999.85 1000.05 1000.21 1000.37 1000.45 1000.53 1000.57 1000.65 1000.73 1000.85 1000.93 1001.09 1001.25
1006.85 1006.49 1006.09 1005.69 1005.33 1004.97 1004.57 1004.25 1003.93 1003.57 1003.25 1002.89 1002.57 1002.29 1002.01 1001.73 1001.41 1001.09 1000.73 1000.37 999.97 999.65 999.49 999.37 999.25 999.13 998.97 998.81 998.69 998.65 998.61 998.69 998.73 998.81 998.85 998.85 998.81 998.73 998.69 998.69 998.65 998.65 998.69 998.69 998.73 998.73 998.81 998.89 999.05 999.21 999.33 999.45 999.57 999.69 999.69 999.77 999.89 1000.05 1000.25 1000.41 1000.53 1000.61 1000.69 1000.73 1000.85 1000.93 1001.05 1001.21 1001.41
1007.01 1006.69 1006.29 1005.93 1005.53 1005.13 1004.81 1004.41 1004.13 1003.81 1003.45 1003.13 1002.85 1002.61 1002.33 1002.05 1001.69 1001.37 1000.97 1000.61 1000.25 999.97 999.77 999.57 999.49 999.41 999.25 999.13 999.05 998.93 998.85 998.81 998.85 998.85 998.89 998.93 998.93 998.89 998.85 998.85 998.85 998.89 998.89 998.89 998.97 998.97 999.05 999.09 999.25 999.37 999.53 999.61 999.69 999.81 999.85 999.89 999.97 1000.13 1000.25 1000.45 1000.57 1000.69 1000.73 1000.81 1000.85 1000.97 1001.17 1001.33 1001.53
1007.05 1006.73 1006.41 1006.05 1005.69 1005.37 1005.01 1004.69 1004.37 1004.05 1003.73 1003.45 1003.21 1002.93 1002.61 1002.29 1001.97 1001.69 1001.33 1001.01 1000.73 1000.41 1000.09 999.85 999.73 999.61 999.53 999.41 999.41 999.25 999.13 999.05 998.97 998.97 998.97 998.97 998.97 998.97 998.97 998.97 999.01 999.01 999.05 999.05 999.09 999.13 999.13 999.25 999.41 999.53 999.65 999.77 999.85 999.97 999.97 999.97 1000.09 1000.21 1000.37 1000.53 1000.61 1000.69 1000.81 1000.85 1000.93 1001.05 1001.25 1001.45 1001.65
1007.21 1006.93 1006.57 1006.25 1005.93 1005.57 1005.21 1004.85 1004.53 1004.25 1003.97 1003.69 1003.45 1003.17 1002.85 1002.57 1002.29 1002.01 1001.73 1001.49 1001.13 1000.77 1000.45 1000.21 999.97 999.85 999.77 999.69 999.65 999.57 999.49 999.41 999.25 999.21 999.17 999.13 999.05 999.01 999.05 999.05 999.09 999.13 999.17 999.17 999.21 999.25 999.29 999.41 999.49 999.61 999.77 999.97 1000.05 1000.09 1000.09 1000.09 1000.17 1000.33 1000.49 1000.57 1000.69 1000.77 1000.85 1000.89 1001.01 1001.13 1001.29 1001.49 1001.69
1007.41 1007.13 1006.85 1006.57 1006.21 1005.85 1005.41 1005.05 1004.73 1004.45 1004.21 1003.93 1003.69 1003.41 1003.13 1002.85 1002.61 1002.37 1002.09 1001.77 1001.41 1001.17 1000.93 1000.69 1000.41 1000.17 1000.05 999.97 999.93 999.85 999.81 999.69 999.61 999.53 999.45 999.41 999.29 999.25 999.21 999.17 999.21 999.25 999.25 999.33 999.33 999.37 999.41 999.53 999.61 999.69 999.89 1000.09 1000.13 1000.17 1000.21 1000.25 1000.25 1000.41 1000.57 1000.69 1000.73 1000.77 1000.85 1000.97 1001.05 1001.21 1001.33 1001.53 1001.73
1007.65 1007.33 1007.05 1006.73 1006.41 1006.09 1005.69 1005.33 1004.97 1004.69 1004.45 1004.21 1003.97 1003.69 1003.41 1003.17 1002.93 1002.69 1002.37 1002.01 1001.73 1001.53 1001.29 1001.09 1000.85 1000.61 1000.41 1000.25 1000.17 1000.13 1000.05 1000.01 999.97 999.89 999.81 999.73 999.65 999.53 999.49 999.45 999.45 999.45 999.45 999.45 999.45 999.49 999.53 999.57 999.69 999.85 1000.01 1000.13 1000.17 1000.21 1000.25 1000.29 1000.37 1000.49 1000.61 1000.69 1000.73 1000.81 1000.89 1000.97 1001.01 1001.13 1001.29 1001.49 1001.69
1007.81 1007.49 1007.17 1006.89 1006.57 1006.25 1005.93 1005.57 1005.25 1005.01 1004.77 1004.53 1004.25 1003.97 1003.73 1003.53 1003.25 1002.97 1002.65 1002.33 1002.13 1001.89 1001.69 1001.45 1001.25 1001.01 1000.85 1000.61 1000.45 1000.37 1000.33 1000.29 1000.25 1000.21 1000.13 1000.09 999.97 999.89 999.85 999.81 999.81 999.77 999.69 999.69 999.69 999.65 999.69 999.69 999.77 999.89 1000.09 1000.21 1000.25 1000.25 1000.33 1000.37 1000.41 1000.53 1000.65 1000.69 1000.77 1000.81 1000.85 1000.97 1001.01 1001.13 1001.25 1001.45 1001.61
1007.85 1007.61 1007.33 1007.05 1006.73 1006.41 1006.13 1005.85 1005.53 1005.33 1005.09 1004.81 1004.57 1004.29 1004.05 1003.81 1003.53 1003.25 1002.97 1002.73 1002.49 1002.25 1002.09 1001.85 1001.61 1001.41 1001.25 1001.01 1000.81 1000.61 1000.57 1000.53 1000.49 1000.41 1000.41 1000.37 1000.29 1000.25 1000.17 1000.13 1000.09 1000.05 999.97 999.97 999.93 999.89 999.89 999.89 999.97 1000.05 1000.13 1000.25 1000.29 1000.37 1000.41 1000.41 1000.49 1000.57 1000.65 1000.69 1000.77 1000.85 1000.89 1000.97 1001.01 1001.13 1001.25 1001.41 1001.61
1007.93 1007.69 1007.45 1007.21 1006.93 1006.69 1006.41 1006.13 1005.89 1005.65 1005.41 1005.13 1004.85 1004.61 1004.37 1004.13 1003.85 1003.53 1003.29 1003.09 1002.85 1002.65 1002.45 1002.25 1002.01 1001.85 1001.61 1001.41 1001.13 1000.93 1000.81 1000.73 1000.69 1000.65 1000.61 1000.57 1000.57 1000.53 1000.49 1000.41 1000.41 1000.33 1000.29 1000.25 1000.25 1000.21 1000.17 1000.17 1000.21 1000.25 1000.33 1000.37 1000.41 1000.45 1000.49 1000.53 1000.57 1000.65 1000.69 1000.69 1000.73 1000.85 1000.93 1000.97 1001.05 1001.13 1001.25 1001.41 1001.57
1008.05 1007.81 1007.57 1007.37 1007.13 1006.93 1006.69 1006.49 1006.25 1005.97 1005.69 1005.45 1005.17 1004.93 1004.69 1004.41 1004.13 1003.85 1003.65 1003.41 1003.17 1002.97 1002.77 1002.57 1002.41 1002.21 1001.97 1001.69 1001.45 1001.25 1001.09 1000.97 1000.93 1000.85 1000.85 1000.81 1000.81 1000.77 1000.69 1000.69 1000.65 1000.61 1000.57 1000.57 1000.53 1000.49 1000.49 1000.49 1000.49 1000.53 1000.57 1000.57 1000.57 1000.57 1000.57 1000.61 1000.69 1000.85 1000.85 1000.77 1000.77 1000.85 1000.93 1000.97 1001.09 1001.21 1001.29 1001.41 1001.53
1008.21 1008.01 1007.81 1007.57 1007.37 1007.21 1007.01 1006.85 1006.57 1006.33 1006.05 1005.81 1005.49 1005.21 1004.97 1004.73 1004.45 1004.21 1003.97 1003.73 1003.49 1003.25 1003.09 1002.89 1002.69 1002.53 1002.29 1002.05 1001.81 1001.61 1001.45 1001.33 1001.21 1001.13 1001.09 1001.05 1001.01 1000.97 1000.93 1000.93 1000.85 1000.85 1000.85 1000.81 1000.77 1000.77 1000.77 1000.73 1000.77 1000.77 1000.81 1000.81 1000.81 1000.77 1000.73 1000.73 1000.85 1000.85 1000.85 1000.85 1000.93 1000.97 1001.01 1001.05 1001.17 1001.25 1001.33 1001.45 1001.57
1008.41 1008.25 1007.97 1007.77 1007.61 1007.49 1007.29 1007.13 1006.89 1006.65 1006.41 1006.13 1005.81 1005.53 1005.29 1005.09 1004.81 1004.53 1004.25 1004.01 1003.77 1003.57 1003.37 1003.13 1002.93 1002.73 1002.57 1002.33 1002.13 1001.97 1001.85 1001.69 1001.53 1001.41 1001.33 1001.25 1001.25 1001.17 1001.13 1001.09 1001.05 1001.01 1000.97 1000.97 1000.97 1000.97 1000.97 1000.97 1000.97 1000.97 1000.97 1000.97 1000.97 1000.97 1000.93 1000.89 1000.93 1000.97 1001.01 1001.13 1001.13 1001.13 1001.13 1001.21 1001.25 1001.33 1001.41 1001.53 1001.69
1008.69 1008.49 1008.25 1008.05 1007.89 1007.69 1007.53 1007.33 1007.17 1006.93 1006.69 1006.41 1006.13 1005.85 1005.57 1005.33 1005.13 1004.85 1004.53 1004.25 1004.01 1003.81 1003.57 1003.37 1003.13 1002.89 1002.73 1002.57 1002.45 1002.29 1002.17 1002.09 1001.97 1001.81 1001.61 1001.53 1001.41 1001.37 1001.29 1001.25 1001.21 1001.13 1001.13 1001.13 1001.13 1001.13 1001.13 1001.13 1001.13 1001.13 1001.13 1001.13 1001.13 1001.13 1001.09 1001.09 1001.09 1001.13 1001.25 1001.29 1001.33 1001.33 1001.33 1001.33 1001.41 1001.49 1001.53 1001.69 1001.85
1008.97 1008.77 1008.57 1008.37 1008.13 1007.93 1007.69 1007.53 1007.41 1007.17 1006.97 1006.69 1006.41 1006.13 1005.85 1005.61 1005.37 1005.13 1004.85 1004.57 1004.33 1004.09 1003.85 1003.61 1003.37 1003.17 1003.01 1002.89 1002.77 1002.65 1002.57 1002.41 1002.33 1002.17 1001.97 1001.81 1001.65 1001.53 1001.49 1001.41 1001.41 1001.33 1001.25 1001.25 1001.25 1001.21 1001.25 1001.25 1001.25 1001.25 1001.25 1001.25 1001.25 1001.25 1001.25 1001.25 1001.25 1001.33 1001.41 1001.41 1001.45 1001.49 1001.53 1001.53 1001.57 1001.65 1001.73 1001.85 1001.97
1009.21 1009.01 1008.85 1008.61 1008.33 1008.13 1007.93 1007.73 1007.53 1007.37 1007.13 1006.93 1006.69 1006.41 1006.13 1005.89 1005.65 1005.41 1005.17 1004.97 1004.69 1004.41 1004.17 1003.97 1003.77 1003.57 1003.41 1003.29 1003.17 1003.05 1002.93 1002.81 1002.65 1002.49 1002.29 1002.13 1001.89 1001.77 1001.69 1001.57 1001.53 1001.53 1001.45 1001.41 1001.37 1001.37 1001.33 1001.33 1001.33 1001.33 1001.33 1001.33 1001.37 1001.41 1001.37 1001.37 1001.41 1001.49 1001.53 1001.53 1001.57 1001.61 1001.69 1001.69 1001.77 1001.81 1001.85 1001.97 1002.05
1009.41 1009.21 1008.97 1008.77 1008.53 1008.25 1008.05 1007.85 1007.65 1007.45 1007.25 1007.05 1006.85 1006.61 1006.41 1006.13 1005.93 1005.69 1005.49 1005.25 1004.97 1004.73 1004.53 1004.29 1004.17 1004.01 1003.89 1003.73 1003.61 1003.45 1003.29 1003.13 1002.93 1002.77 1002.61 1002.41 1002.25 1002.05 1001.85 1001.77 1001.73 1001.69 1001.69 1001.65 1001.53 1001.49 1001.41 1001.41 1001.45 1001.45 1001.49 1001.49 1001.49 1001.49 1001.49 1001.53 1001.57 1001.65 1001.69 1001.69 1001.73 1001.77 1001.85 1001.85 1001.89 1001.97 1001.97 1002.09 1002.13
1009.57 1009.37 1009.13 1008.89 1008.65 1008.41 1008.17 1007.97 1007.73 1007.53 1007.29 1007.13 1006.93 1006.73 1006.57 1006.37 1006.17 1005.93 1005.69 1005.45 1005.21 1004.97 1004.81 1004.65 1004.53 1004.41 1004.29 1004.17 1003.97 1003.77 1003.53 1003.37 1003.17 1003.01 1002.85 1002.69 1002.53 1002.33 1002.17 1002.01 1001.97 1001.93 1001.85 1001.81 1001.73 1001.65 1001.53 1001.49 1001.53 1001.53 1001.57 1001.57 1001.57 1001.57 1001.57 1001.61 1001.65 1001.69 1001.77 1001.85 1001.85 1001.89 1001.97 1001.97 1002.01 1002.05 1002.13 1002.17 1002.25
1009.69 1009.49 1009.25 1009.01 1008.77 1008.57 1008.29 1008.05 1007.81 1007.61 1007.41 1007.25 1007.09 1006.89 1006.69 1006.53 1006.29 1006.09 1005.85 1005.65 1005.41 1005.25 1005.05 1004.93 1004.81 1004.69 1004.57 1004.41 1004.25 1004.09 1003.85 1003.65 1003.45 1003.25 1003.13 1002.97 1002.85 1002.65 1002.45 1002.29 1002.21 1002.17 1002.13 1002.01 1001.85 1001.73 1001.61 1001.53 1001.53 1001.53 1001.57 1001.65 1001.69 1001.69 1001.69 1001.73 1001.73 1001.77 1001.85 1001.89 1001.93 1001.97 1002.01 1002.05 1002.09 1002.13 1002.17 1002.25 1002.33
1009.85 1009.61 1009.41 1009.13 1008.93 1008.69 1008.41 1008.21 1007.97 1007.81 1007.61 1007.45 1007.25 1007.01 1006.85 1006.61 1006.41 1006.25 1006.05 1005.85 1005.69 1005.45 1005.29 1005.13 1004.97 1004.85 1004.77 1004.65 1004.49 1004.33 1004.13 1003.97 1003.81 1003.65 1003.49 1003.29 1003.13 1002.97 1002.77 1002.61 1002.53 1002.49 1002.41 1002.33 1002.13 1001.89 1001.73 1001.69 1001.61 1001.57 1001.57 1001.65 1001.69 1001.73 1001.77 1001.85 1001.85 1001.89 1001.97 1001.97 1001.97 1002.01 1002.09 1002.13 1002.21 1002.25 1002.25 1002.33 1002.41
1009.93 1009.69 1009.49 1009.29 1009.09 1008.85 1008.61 1008.41 1008.25 1008.05 1007.85 1007.61 1007.41 1007.17 1006.97 1006.81 1006.57 1006.41 1006.21 1006.01 1005.85 1005.69 1005.49 1005.29 1005.13 1005.05 1004.97 1004.85 1004.69 1004.53 1004.37 1004.25 1004.13 1003.97 1003.85 1003.69 1003.49 1003.29 1003.13 1002.97 1002.89 1002.85 1002.81 1002.65 1002.41 1002.21 1001.97 1001.85 1001.77 1001.69 1001.69 1001.69 1001.69 1001.77 1001.81 1001.89 1001.97 1001.97 1002.01 1002.05 1002.05 1002.09 1002.13 1002.25 1002.33 1002.37 1002.41 1002.41 1002.53
1009.97 1009.81 1009.61 1009.41 1009.25 1009.01 1008.81 1008.61 1008.41 1008.21 1007.97 1007.77 1007.57 1007.41 1007.21 1006.97 1006.77 1006.57 1006.33 1006.17 1006.05 1005.85 1005.65 1005.45 1005.33 1005.25 1005.13 1005.05 1004.89 1004.73 1004.65 1004.57 1004.41 1004.29 1004.13 1004.01 1003.85 1003.69 1003.49 1003.37 1003.25 1003.21 1003.13 1002.93 1002.69 1002.53 1002.33 1002.13 1002.01 1001.89 1001.81 1001.73 1001.73 1001.81 1001.85 1001.93 1002.01 1002.05 1002.09 1002.09 1002.13 1002.17 1002.25 1002.29 1002.37 1002.41 1002.49 1002.57 1002.57
1010.13 1009.97 1009.77 1009.57 1009.37 1009.21 1008.97 1008.77 1008.57 1008.37 1008.17 1007.97 1007.85 1007.65 1007.41 1007.13 1006.97 1006.69 1006.53 1006.37 1006.21 1005.97 1005.81 1005.65 1005.53 1005.45 1005.33 1005.21 1005.13 1005.01 1004.93 1004.81 1004.69 1004.57 1004.45 1004.25 1004.13 1003.97 1003.85 1003.69 1003.53 1003.49 1003.41 1003.17 1002.97 1002.77 1002.61 1002.41 1002.33 1002.17 1002.05 1001.93 1001.85 1001.85 1001.85 1001.97 1002.01 1002.05 1002.09 1002.13 1002.21 1002.25 1002.25 1002.33 1002.41 1002.45 1002.49 1002.57 1002.57
1010.25 1010.13 1009.93 1009.73 1009.57 1009.37 1009.13 1008.97 1008.77 1008.61 1008.41 1008.25 1008.05 1007.85 1007.61 1007.37 1007.13 1006.93 1006.73 1006.57 1006.41 1006.25 1006.09 1005.97 1005.81 1005.69 1005.53 1005.45 1005.37 1005.25 1005.13 1005.05 1004.97 1004.85 1004.69 1004.53 1004.37 1004.25 1004.09 1003.97 1003.85 1003.69 1003.57 1003.37 1003.17 1002.97 1002.85 1002.69 1002.53 1002.41 1002.25 1002.17 1002.01 1001.93 1001.89 1001.89 1001.93 1001.97 1002.09 1002.17 1002.25 1002.29 1002.33 1002.41 1002.41 1002.41 1002.45 1002.49 1002.57
1010.37 1010.21 1010.05 1009.89 1009.73 1009.53 1009.37 1009.17 1009.01 1008.85 1008.65 1008.45 1008.21 1007.97 1007.77 1007.53 1007.37 1007.17 1006.97 1006.85 1006.69 1006.61 1006.49 1006.33 1006.13 1005.97 1005.85 1005.69 1005.53 1005.41 1005.33 1005.25 1005.13 1005.01 1004.85 1004.73 1004.57 1004.41 1004.33 1004.21 1004.05 1003.93 1003.77 1003.53 1003.37 1003.17 1003.01 1002.85 1002.69 1002.57 1002.41 1002.25 1002.13 1002.01 1001.93 1001.89 1001.89 1001.93 1002.01 1002.13 1002.21 1002.29 1002.37 1002.41 1002.41 1002.41 1002.45 1002.45 1002.49
1010.49 1010.33 1010.17 1010.01 1009.85 1009.69 1009.53 1009.37 1009.17 1008.97 1008.81 1008.57 1008.37 1008.13 1007.97 1007.77 1007.65 1007.45 1007.29 1007.13 1007.05 1006.89 1006.69 1006.53 1006.33 1006.13 1006.01 1005.89 1005.77 1005.65 1005.53 1005.41 1005.25 1005.17 1005.05 1004.93 1004.85 1004.69 1004.57 1004.41 1004.25 1004.13 1003.93 1003.73 1003.53 1003.33 1003.13 1002.97 1002.85 1002.69 1002.57 1002.41 1002.21 1002.09 1001.97 1001.93 1001.89 1001.89 1001.93 1001.97 1002.09 1002.13 1002.25 1002.33 1002.37 1002.41 1002.41 1002.45 1002.45
1010.57 1010.41 1010.25 1010.13 1009.97 1009.81 1009.65 1009.45 1009.25 1009.13 1008.93 1008.73 1008.53 1008.33 1008.17 1007.97 1007.89 1007.77 1007.61 1007.41 1007.25 1007.13 1006.89 1006.69 1006.53 1006.33 1006.17 1006.01 1005.93 1005.81 1005.69 1005.53 1005.45 1005.37 1005.29 1005.17 1005.05 1004.89 1004.73 1004.57 1004.45 1004.29 1004.13 1003.89 1003.69 1003.49 1003.29 1003.13 1002.97 1002.85 1002.69 1002.49 1002.29 1002.13 1002.01 1001.93 1001.89 1001.85 1001.85 1001.89 1001.93 1001.97 1002.09 1002.17 1002.25 1002.37 1002.41 1002.41 1002.41
1010.61 1010.53 1010.41 1010.25 1010.09 1009.93 1009.73 1009.53 1009.37 1009.21 1009.01 1008.85 1008.65 1008.49 1008.33 1008.21 1008.01 1007.85 1007.73 1007.61 1007.45 1007.33 1007.13 1006.97 1006.81 1006.65 1006.49 1006.29 1006.17 1006.05 1005.93 1005.81 1005.69 1005.57 1005.45 1005.33 1005.21 1005.09 1004.93 1004.77 1004.65 1004.49 1004.29 1004.09 1003.85 1003.65 1003.41 1003.25 1003.13 1002.97 1002.81 1002.65 1002.45 1002.25 1002.09 1001.97 1001.89 1001.85 1001.85 1001.85 1001.85 1001.89 1001.97 1002.01 1002.13 1002.25 1002.29 1002.33 1002.37
1010.69 1010.57 1010.45 1010.33 1010.21 1010.05 1009.85 1009.65 1009.45 1009.25 1009.13 1008.93 1008.77 1008.65 1008.49 1008.37 1008.17 1007.97 1007.85 1007.77 1007.69 1007.53 1007.41 1007.25 1007.13 1006.97 1006.85 1006.65 1006.49 1006.33 1006.17 1006.01 1005.89 1005.77 1005.61 1005.49 1005.33 1005.17 1005.05 1004.93 1004.85 1004.69 1004.45 1004.25 1003.97 1003.81 1003.57 1003.41 1003.21 1003.09 1002.97 1002.81 1002.65 1002.45 1002.25 1002.13 1001.97 1001.89 1001.85 1001.85 1001.85 1001.85 1001.85 1001.89 1001.97 1002.05 1002.13 1002.25 1002.29
1010.81 1010.69 1010.57 1010.41 1010.29 1010.13 1009.93 1009.73 1009.53 1009.37 1009.17 1009.01 1008.89 1008.77 1008.65 1008.53 1008.41 1008.25 1008.09 1007.93 1007.85 1007.69 1007.61 1007.49 1007.33 1007.17 1007.01 1006.85 1006.69 1006.57 1006.41 1006.21 1006.09 1005.97 1005.85 1005.69 1005.49 1005.29 1005.13 1005.09 1004.97 1004.85 1004.61 1004.41 1004.17 1003.93 1003.73 1003.53 1003.33 1003.13 1003.01 1002.93 1002.81 1002.69 1002.49 1002.29 1002.13 1001.97 1001.89 1001.85 1001.85 1001.85 1001.85 1001.85 1001.89 1001.93 1001.97 1002.13 1002.21
1010.93 1010.81 1010.69 1010.57 1010.41 1010.25 1010.01 1009.85 1009.65 1009.45 1009.25 1009.13 1009.01 1008.89 1008.77 1008.65 1008.53 1008.41 1008.25 1008.13 1007.97 1007.85 1007.69 1007.57 1007.41 1007.29 1007.13 1006.97 1006.85 1006.73 1006.57 1006.45 1006.29 1006.13 1005.97 1005.85 1005.65 1005.45 1005.29 1005.17 1005.09 1004.93 1004.73 1004.57 1004.37 1004.13 1003.89 1003.69 1003.49 1003.33 1003.17 1003.05 1002.97 1002.85 1002.65 1002.45 1002.29 1002.13 1002.01 1001.89 1001.85 1001.81 1001.77 1001.77 1001.81 1001.85 1001.85 1001.97 1002.09
1010.97 1010.89 1010.81 1010.69 1010.53 1010.33 1010.13 1009.97 1009.77 1009.57 1009.41 1009.25 1009.17 1009.05 1008.93 1008.77 1008.65 1008.53 1008.37 1008.17 1008.05 1007.93 1007.81 1007.69 1007.53 1007.41 1007.29 1007.17 1007.05 1006.93 1006.85 1006.69 1006.49 1006.29 1006.13 1005.97 1005.81 1005.61 1005.45 1005.33 1005.21 1005.05 1004.89 1004.69 1004.49 1004.25 1004.05 1003.85 1003.69 1003.53 1003.37 1003.25 1003.13 1002.97 1002.85 1002.65 1002.49 1002.33 1002.17 1002.01 1001.89 1001.81 1001.73 1001.69 1001.69 1001.69 1001.73 1001.81 1001.93
1011.05 1010.97 1010.89 1010.77 1010.61 1010.41 1010.25 1010.05 1009.85 1009.69 1009.53 1009.41 1009.29 1009.17 1009.05 1008.93 1008.81 1008.65 1008.49 1008.29 1008.17 1008.05 1007.93 1007.85 1007.69 1007.57 1007.45 1007.37 1007.25 1007.13 1006.97 1006.85 1006.69 1006.49 1006.29 1006.17 1005.97 1005.81 1005.65 1005.53 1005.37 1005.25 1005.05 1004.85 1004.61 1004.41 1004.21 1004.01 1003.85 1003.69 1003.57 1003.49 1003.37 1003.21 1003.01 1002.85 1002.69 1002.57 1002.41 1002.25 1002.05 1001.89 1001.81 1001.69 1001.65 1001.61 1001.61 1001.65 1001.69
1011.09 1011.01 1010.93 1010.85 1010.69 1010.57 1010.37 1010.13 1009.97 1009.85 1009.69 1009.53 1009.41 1009.25 1009.13 1008.97 1008.93 1008.77 1008.65 1008.49 1008.37 1008.25 1008.13 1007.97 1007.85 1007.73 1007.61 1007.49 1007.37 1007.25 1007.13 1006.97 1006.85 1006.69 1006.49 1006.33 1006.17 1005.97 1005.85 1005.69 1005.53 1005.37 1005.17 1004.97 1004.77 1004.57 1004.37 1004.17 1004.01 1003.85 1003.77 1003.69 1003.57 1003.41 1003.25 1003.05 1002.89 1002.73 1002.57 1002.45 1002.29 1002.13 1001.97 1001.85 1001.69 1001.57 1001.53 1001.53 1001.53
1011.13 1011.05 1010.97 1010.89 1010.81 1010.65 1010.45 1010.25 1010.09 1009.97 1009.85 1009.69 1009.53 1009.37 1009.25 1009.13 1009.01 1008.89 1008.73 1008.61 1008.49 1008.37 1008.25 1008.09 1007.97 1007.85 1007.69 1007.53 1007.41 1007.29 1007.17 1007.01 1006.93 1006.77 1006.61 1006.49 1006.29 1006.13 1005.97 1005.85 1005.69 1005.53 1005.29 1005.13 1004.89 1004.69 1004.45 1004.25 1004.13 1003.97 1003.89 1003.85 1003.77 1003.65 1003.45 1003.25 1003.05 1002.85 1002.73 1002.61 1002.53 1002.37 1002.21 1002.01 1001.85 1001.65 1001.53 1001.45 1001.45
1011.17 1011.09 1010.97 1010.93 1010.85 1010.69 1010.53 1010.37 1010.21 1010.05 1009.93 1009.77 1009.61 1009.45 1009.33 1009.21 1009.13 1008.97 1008.85 1008.69 1008.61 1008.49 1008.33 1008.17 1008.05 1007.93 1007.81 1007.65 1007.49 1007.37 1007.21 1007.13 1006.97 1006.85 1006.73 1006.57 1006.41 1006.25 1006.13 1005.97 1005.81 1005.61 1005.41 1005.25 1005.01 1004.81 1004.57 1004.41 1004.25 1004.13 1004.05 1003.97 1003.89 1003.81 1003.65 1003.45 1003.25 1003.09 1002.89 1002.77 1002.69 1002.57 1002.41 1002.21 1001.97 1001.77 1001.57 1001.45 1001.41
Thickness
5559 5559 5558 5558 5557 5557 5557 5558 5558 5558 5558 5559 5561 5562 5564 5565 5564 5564 5564 5564 5563 5562 5560 5559 5558 5556 5554 5553 5554 5554 5555 5555 5557 5558 5559 5561 5562 5565 5567 5568 5571 5573 5576 5580 5583 5585 5589 5591 5594 5595 5597 5599 5601 5602 5603 5604 5606 5608 5610 5612 5613 5614 5616 5617 5618 5619 5620 5621 5623
5559 5558 5558 5558 5557 5558 5557 5558 5558 5558 5558 5559 5560 5561 5563 5566 5567 5568 5568 5568 5568 5567 5566 5565 5564 5563 5562 5561 5560 5560 5561 5562 5562 5564 5565 5565 5568 5570 5573 5574 5576 5578 5580 5583 5585 5588 5590 5592 5595 5596 5598 5599 5600 5601 5602 5603 5605 5607 5609 5611 5613 5615 5616 5617 5618 5619 5621 5622 5622
5559 5559 5559 5559 5558 5557 5558 5558 5558 5559 5558 5559 5560 5561 5563 5564 5567 5569 5571 5572 5572 5571 5571 5570 5570 5569 5568 5566 5566 5565 5566 5567 5567 5568 5569 5570 5573 5575 5577 5578 5580 5582 5584 5586 5588 5590 5591 5593 5595 5597 5598 5599 5599 5600 5601 5602 5604 5606 5608 5610 5612 5614 5615 5617 5618 5619 5621 5622 5622
5558 5558 5558 5557 5557 5557 5557 5557 5557 5558 5558 5559 5560 5561 5562 5563 5565 5568 5570 5572 5573 5574 5574 5574 5573 5573 5572 5571 5571 5570 5570 5571 5570 5570 5571 5573 5576 5578 5580 5581 5583 5586 5588 5589 5590 5592 5593 5595 5596 5597 5598 5599 5600 5601 5602 5603 5604 5604 5606 5607 5610 5612 5615 5617 5618 5620 5621 5621 5622
5557 5557 5557 5556 5556 5557 5557 5557 5557 5557 5558 5559 5560 5561 5563 5563 5564 5567 5569 5572 5574 5574 5575 5576 5576 5576 5576 5575 5574 5574 5574 5573 5573 5572 5573 5575 5577 5579 5581 5583 5585 5588 5589 5591 5593 5594 5595 5596 5597 5597 5598 5599 5600 5602 5603 5604 5603 5604 5605 5606 5608 5610 5613 5616 5618 5620 5621 5622 5621
5556 5556 5556 5556 5556 5557 5557 5557 5557 5557 5558 5559 5560 5561 5562 5563 5564 5566 5569 5571 5573 5575 5576 5577 5577 5577 5577 5578 5578 5578 5577 5576 5575 5575 5575 5576 5578 5579 5581 5583 5585 5588 5589 5591 5593 5594 5596 5597 5597 5597 5598 5598 5600 5600 5602 5602 5603 5603 5604 5605 5606 5608 5611 5614 5616 5619 5621 5622 5621
5554 5555 5555 5556 5556 5556 5557 5558 5557 5558 5558 5559 5560 5561 5562 5563 5564 5566 5567 5570 5573 5575 5576 5577 5577 5578 5578 5579 5579 5579 5579 5578 5578 5578 5577 5579 5579 5580 5581 5582 5584 5586 5588 5590 5592 5594 5595 5596 5596 5596 5597 5597 5598 5600 5601 5602 5603 5603 5603 5604 5605 5607 5610 5612 5615 5618 5619 5619 5619
5553 5554 5554 5555 5556 5556 5557 5558 5558 5558 5558 5558 5559 5560 5561 5563 5564 5566 5568 5569 5571 5573 5575 5576 5577 5578 5579 5579 5579 5580 5581 5580 5580 5580 5580 5580 5582 5582 5582 5582 5583 5585 5587 5588 5590 5592 5594 5595 5595 5596 5596 5597 5597 5598 5599 5601 5602 5602 5603 5602 5604 5606 5608 5611 5616 5618 5618 5617 5617
5553 5554 5554 5555 5555 5556 5556 5557 5557 5558 5558 5558 5559 5560 5561 5562 5564 5566 5567 5568 5569 5571 5573 5575 5576 5577 5578 5579 5579 5580 5580 5581 5581 5581 5581 5582 5582 5583 5584 5584 5585 5585 5586 5587 5589 5590 5593 5594 5595 5595 5596 5595 5595 5596 5598 5599 5601 5601 5602 5602 5602 5604 5607 5611 5615 5616 5615 5615 5615
5553 5553 5554 5554 5555 5555 5556 5557 5557 5558 5558 5559 5559 5559 5561 5562 5563 5564 5565 5567 5568 5570 5572 5573 5575 5576 5577 5577 5579 5579 5580 5580 5581 5582 5582 5583 5584 5584 5585 5585 5586 5586 5586 5587 5588 5589 5591 5593 5594 5595 5595 5594 5594 5595 5596 5598 5599 5600 5600 5601 5602 5603 5606 5609 5613 5614 5613 5612 5612
5552 5552 5552 5553 5553 5555 5556 5556 5557 5558 5558 5558 5559 5560 5560 5561 5562 5563 5564 5566 5567 5569 5570 5571 5572 5574 5575 5576 5576 5577 5579 5579 5580 5581 5581 5582 5583 5584 5585 5586 5586 5586 5586 5586 5587 5588 5589 5590 5593 5595 5595 5593 5593 5593 5595 5596 5597 5598 5599 5600 5601 5603 5605 5607 5610 5611 5611 5610 5609
5551 5551 5552 5552 5553 5554 5555 5556 5556 5557 5558 5558 5558 5559 5560 5561 5561 5562 5563 5565 5566 5567 5568 5569 5570 5572 5573 5574 5575 5575 5577 5578 5579 5579 5580 5581 5582 5583 5584 5584 5585 5586 5586 5586 5587 5587 5588 5588 5592 5593 5594 5592 5592 5592 5594 5595 5596 5597 5598 5599 5601 5602 5604 5605 5607 5609 5610 5610 5609
5550 5551 5551 5552 5552 5553 5554 5555 5556 5557 5557 5558 5558 5558 5559 5560 5560 5561 5562 5563 5565 5565 5566 5568 5568 5569 5571 5572 5573 5574 5574 5575 5577 5578 5579 5579 5581 5582 5582 5583 5584 5584 5585 5585 5586 5587 5587 5587 5589 5590 5591 5591 5591 5592 5593 5595 5596 5596 5597 5599 5600 5601 5603 5603 5605 5607 5609 5609 5609
5550 5550 5550 5551 5552 5553 5554 5555 5555 5556 5556 5557 5557 5557 5557 5558 5560 5560 5561 5562 5563 5563 5564 5565 5567 5568 5569 5570 5572 5573 5573 5574 5575 5575 5577 5578 5579 5579 5580 5581 5582 5582 5583 5584 5585 5586 5587 5587 5587 5587 5588 5590 5591 5592 5594 5595 5596 5596 5597 5598 5599 5600 5601 5603 5604 5605 5607 5609 5609
5549 5549 5549 5550 5551 5552 5553 5553 5554 5554 5555 5556 5556 5557 5557 5557 5558 5559 5560 5561 5561 5561 5562 5563 5564 5565 5567 5568 5570 5572 5573 5572 5573 5574 5575 5576 5576 5577 5578 5579 5580 5581 5581 5583 5583 5584 5584 5585 5585 5586 5586 5589 5591 5594 5597 5598 5597 5596 5596 5598 5599 5600 5601 5602 5602 5604 5606 5607 5608
5548 5549 5549 5549 5550 5550 5551 5552 5551 5552 5553 5554 5554 5555 5556 5556 5557 5558 5559 5559 5560 5560 5561 5561 5562 5563 5565 5566 5568 5569 5571 5572 5572 5573 5573 5574 5574 5575 5576 5577 5577 5579 5580 5581 5581 5582 5583 5583 5584 5584 5586 5588 5591 5594 5595 5596 5597 5595 5594 5596 5597 5598 5599 5600 5601 5602 5604 5606 5606
5547 5547 5547 5548 5548 5548 5549 5549 5549 5550 5551 5552 5552 5554 5555 5555 5556 5557 5557 5558 5559 5559 5560 5560 5561 5562 5563 5564 5566 5566 5568 5569 5570 5570 5572 5572 5572 5573 5573 5574 5575 5576 5577 5578 5579 5580 5581 5581 5582 5583 5584 5586 5587 5589 5589 5589 5591 5593 5594 5593 5594 5595 5597 5598 5600 5600 5601 5603 5604
5545 5546 5546 5546 5546 5546 5546 5547 5547 5548 5549 5549 5551 5552 5552 5553 5554 5555 5556 5557 5557 5558 5559 5560 5560 5561 5561 5562 5563 5563 5563 5566 5567 5568 5570 5570 5570 5571 5572 5572 5573 5574 5575 5576 5577 5578 5579 5580 5581 5582 5583 5584 5585 5585 5584 5585 5585 5587 5589 5591 5592 5593 5594 5596 5598 5598 5599 5599 5599
5543 5543 5544 5544 5544 5544 5544 5544 5545 5546 5546 5547 5548 5550 5550 5552 5552 5553 5555 5556 5557 5558 5559 5560 5560 5561 5561 5561 5560 5561 5562 5564 5565 5566 5567 5568 5569 5570 5570 5571 5572 5573 5573 5575 5575 5576 5577 5578 5580 5580 5582 5583 5583 5583 5582 5581 5582 5583 5584 5587 5588 5590 5592 5593 5595 5597 5596 5596 5596
5541 5541 5541 5542 5542 5542 5543 5543 5543 5543 5544 5545 5546 5547 5548 5549 5550 5552 5553 5554 5555 5556 5557 5559 5560 5560 5560 5560 5559 5559 5559 5561 5563 5565 5566 5566 5567 5568 5569 5570 5571 5572 5572 5573 5573 5574 5575 5576 5577 5578 5580 5581 5582 5582 5580 5580 5580 5581 5582 5584 5586 5587 5589 5591 5593 5594 5594 5594 5594
5539 5539 5539 5539 5540 5541 5541 5541 5541 5541 5542 5542 5543 5544 5546 5547 5548 5549 5550 5551 5552 5554 5555 5556 5556 5558 5557 5558 5558 5558 5558 5560 5561 5563 5564 5566 5568 5568 5568 5569 5569 5570 5571 5572 5572 5573 5573 5574 5575 5576 5577 5579 5580 5580 5580 5579 5579 5580 5581 5583 5584 5585 5587 5588 5590 5591 5592 5592 5592
5536 5537 5537 5538 5539 5539 5539 5539 5540 5540 5540 5541 5541 5542 5543 5544 5545 5546 5547 5548 5550 5552 5553 5554 5554 5554 5555 5555 5556 5557 5558 5560 5561 5562 5563 5565 5566 5568 5569 5569 5568 5568 5569 5570 5571 5572 5572 5573 5574 5574 5576 5577 5578 5579 5578 5579 5579 5579 5581 5582 5583 5584 5585 5586 5587 5588 5590 5590 5590
5535 5535 5536 5536 5537 5537 5538 5539 5539 5539 5540 5540 5540 5541 5541 5542 5543 5543 5545 5546 5548 5549 5550 5551 5551 5552 5552 5553 5554 5556 5558 5559 5561 5562 5563 5563 5564 5565 5566 5568 5568 5568 5568 5568 5569 5570 5571 5572 5572 5573 5574 5575 5576 5577 5578 5578 5578 5579 5580 5580 5582 5582 5583 5584 5585 5587 5587 5588 5588
5532 5533 5534 5535 5536 5536 5536 5537 5538 5539 5539 5538 5539 5539 5540 5540 5541 5542 5543 5544 5545 5547 5547 5548 5549 5550 5550 5551 5552 5553 5555 5557 5558 5560 5561 5562 5562 5562 5563 5564 5565 5566 5566 5567 5568 5569 5570 5571 5572 5572 5572 5573 5574 5575 5575 5576 5577 5578 5579 5580 5580 5581 5582 5583 5583 5584 5586 5586 5587
5531 5531 5532 5533 5533 5534 5535 5536 5536 5536 5537 5537 5537 5538 5538 5539 5539 5540 5541 5542 5543 5544 5544 5546 5546 5547 5548 5549 5551 5551 5553 5554 5556 5557 5558 5559 5560 5560 5561 5561 5561 5562 5562 5563 5565 5568 5570 5571 5571 5572 5572 5572 5573 5573 5574 5574 5575 5576 5577 5577 5578 5579 5580 5581 5581 5582 5583 5584 5585
5529 5529 5530 5531 5531 5532 5532 5533 5534 5534 5535 5535 5536 5536 5537 5537 5538 5538 5539 5540 5541 5541 5542 5543 5544 5545 5546 5547 5548 5550 5551 5551 5552 5553 5554 5555 5556 5557 5558 5559 5559 5558 5559 5560 5562 5564 5566 5568 5569 5571 5571 5572 5572 5572 5572 5573 5573 5574 5575 5576 5577 5577 5578 5578 5578 5580 5581 5581 5582
5527 5528 5528 5528 5529 5530 5530 5531 5531 5532 5532 5533 5534 5534 5535 5535 5536 5537 5538 5538 5538 5539 5540 5541 5542 5542 5543 5544 5545 5547 5548 5548 5549 5550 5551 5551 5553 5554 5555 5555 5556 5556 5556 5557 5559 5561 5562 5564 5566 5567 5568 5570 5571 5572 5571 5571 5571 5572 5573 5574 5574 5575 5575 5576 5576 5577 5578 5578 5579
5525 5525 5526 5526 5526 5528 5528 5529 5529 5529 5530 5530 5531 5531 5532 5533 5534 5535 5535 5535 5536 5537 5538 5539 5539 5539 5540 5541 5542 5543 5544 5545 5546 5547 5548 5549 5549 5550 5551 5552 5552 5552 5553 5554 5556 5558 5559 5560 5562 5564 5565 5566 5568 5569 5570 5570 5570 5571 5571 5572 5572 5572 5573 5573 5574 5574 5575 5575 5576
5523 5523 5523 5524 5524 5525 5526 5526 5526 5527 5527 5528 5528 5529 5530 5531 5532 5532 5533 5533 5534 5534 5535 5535 5536 5536 5537 5537 5538 5539 5540 5541 5542 5544 5545 5546 5547 5547 5548 5548 5549 5549 5550 5552 5553 5554 5556 5558 5559 5560 5562 5563 5565 5567 5568 5569 5569 5569 5569 5569 5569 5570 5570 5571 5571 5572 5573 5574 5574
5521 5521 5521 5521 5522 5522 5523 5523 5524 5524 5524 5525 5526 5526 5527 5528 5529 5529 5530 5530 5530 5530 5531 5532 5532 5533 5534 5534 5535 5536 5537 5538 5539 5540 5541 5543 5544 5544 5545 5546 5546 5546 5547 5548 5550 5551 5553 5554 5555 5557 5559 5560 5562 5564 5565 5567 5567 5567 5567 5567 5567 5567 5568 5568 5569 5569 5570 5571 5572
5518 5518 5518 5519 5520 5520 5520 5520 5521 5521 5522 5522 5524 5524 5525 5525 5525 5526 5526 5527 5527 5527 5528 5528 5530 5531 5531 5531 5532 5533 5534 5534 5535 5536 5538 5539 5541 5541 5542 5543 5543 5544 5544 5546 5547 5548 5549 5551 5552 5554 5555 5558 5559 5561 5562 5564 5565 5565 5566 5566 5566 5566 5566 5566 5567 5567 5568 5569 5570
5517 5517 5517 5517 5517 5518 5518 5519 5519 5520 5520 5520 5521 5522 5522 5522 5523 5523 5524 5524 5524 5525 5526 5526 5527 5528 5529 5529 5530 5530 5531 5531 5532 5533 5534 5534 5536 5537 5538 5539 5540 5541 5542 5543 5544 5545 5546 5547 5549 5550 5552 5554 5556 5558 5559 5561 5562 5563 5563 5564 5565 5565 5565 5565 5564 5565 5566 5566 5567
5515 5515 5515 5515 5515 5516 5516 5517 5517 5517 5518 5519 5519 5519 5520 5520 5521 5521 5521 5522 5521 5522 5522 5523 5524 5524 5525 5526 5526 5527 5527 5528 5528 5529 5530 5531 5532 5533 5534 5535 5537 5537 5538 5540 5541 5542 5544 5544 5546 5547 5548 5550 5552 5554 5556 5557 5559 5560 5560 5561 5562 5562 5562 5563 5562 5563 5563 5563 5564
5512 5512 5513 5512 5513 5513 5514 5515 5515 5516 5516 5516 5517 5517 5517 5518 5518 5518 5519 5519 5518 5519 5519 5520 5520 5520 5520 5521 5521 5522 5523 5524 5524 5525 5526 5526 5528 5529 5531 5531 5531 5532 5534 5536 5538 5539 5541 5542 5543 5543 5544 5546 5547 5549 5551 5553 5555 5556 5557 5558 5558 5559 5560 5560 5560 5561 5560 5561 5562
5510 5510 5510 5510 5510 5511 5512 5513 5513 5513 5514 5514 5514 5514 5515 5515 5515 5516 5516 5516 5516 5517 5517 5516 5517 5517 5517 5517 5518 5518 5519 5519 5520 5521 5521 5522 5523 5525 5526 5527 5528 5528 5530 5531 5533 5534 5536 5538 5539 5540 5541 5542 5543 5544 5546 5548 5550 5552 5554 5554 5556 5556 5556 5557 5557 5558 5558 5558 5558
5508 5507 5507 5508 5508 5509 5509 5510 5511 5511 5512 5512 5512 5512 5512 5512 5512 5513 5513 5513 5514 5514 5514 5514 5514 5515 5515 5515 5515 5515 5515 5515 5516 5517 5517 5518 5519 5521 5522 5523 5523 5525 5526 5527 5528 5530 5532 5533 5534 5536 5537 5537 5538 5539 5541 5543 5545 5547 5549 5550 5551 5553 5553 5553 5554 5555 5555 5555 5556
5505 5505 5505 5505 5506 5506 5507 5508 5509 5509 5509 5510 5510 5509 5510 5510 5510 5510 5510 5510 5511 5511 5511 5511 5511 5512 5512 5512 5512 5512 5512 5512 5512 5513 5514 5514 5515 5516 5517 5518 5519 5520 5521 5522 5524 5525 5526 5528 5529 5531 5532 5533 5534 5535 5536 5538 5540 5541 5543 5545 5547 5548 5549 5550 5551 5551 5552 5552 5552
5503 5502 5503 5503 5503 5504 5505 5506 5506 5506 5507 5507 5507 5507 5507 5507 5507 5507 5508 5508 5508 5508 5508 5508 5508 5509 5508 5509 5509 5509 5509 5509 5509 5509 5510 5511 5511 5512 5513 5514 5514 5515 5516 5518 5519 5520 5521 5523 5524 5525 5526 5527 5528 5529 5531 5533 5535 5536 5538 5539 5541 5542 5544 5546 5547 5548 5548 5548 5549
5501 5501 5501 5501 5501 5502 5502 5504 5504 5504 5504 5505 5505 5505 5505 5505 5505 5505 5505 5504 5504 5505 5505 5505 5505 5505 5505 5505 5506 5506 5507 5507 5506 5507 5507 5507 5508 5508 5509 5509 5510 5511 5512 5513 5514 5515 5517 5518 5518 5519 5520 5520 5522 5523 5525 5527 5528 5530 5532 5533 5534 5536 5538 5540 5542 5544 5544 5545 5546
5499 5498 5498 5499 5499 5499 5500 5501 5501 5501 5502 5502 5503 5503 5503 5503 5502 5502 5502 5502 5502 5502 5502 5501 5502 5502 5502 5502 5503 5503 5503 5503 5504 5504 5504 5504 5504 5505 5505 5506 5506 5507 5508 5509 5510 5511 5512 5513 5514 5514 5514 5515 5515 5516 5518 5520 5522 5524 5526 5528 5529 5531 5533 5534 5536 5538 5540 5542 5542
5497 5497 5497 5497 5497 5497 5497 5498 5499 5499 5499 5499 5500 5500 5500 5500 5500 5500 5500 5500 5499 5499 5499 5499 5499 5499 5499 5499 5499 5500 5500 5501 5501 5501 5501 5501 5501 5501 5502 5502 5503 5503 5504 5505 5506 5507 5508 5509 5510 5510 5509 5510 5510 5511 5512 5514 5516 5518 5520 5522 5523 5525 5527 5529 5531 5533 5536 5537 5538